Location: Balsareny
(41.8670°N, 1.8830°E)
Time: 20:50:13
(UTC+01:00)

N. Korean satellite - Pass Details

Date: 05 December 2021
Orbit: 447 x 490 km, 97.3° (Epoch: 28 January)

Event Time Altitude Azimuth Distance (km) Brightness Sun altitude
Rises 05:23:08 0° 27° (NNE) 2,459 10.4 -29.3°
Reaches altitude 10° 05:25:33 10° 45° (NE) 1,579 9.6 -28.9°
Maximum altitude 05:28:08 20° 95° (E) 1,084 9.0 -28.4°
Drops below altitude 10° 05:30:42 10° 145° (SE) 1,569 9.6 -27.9°
Sets 05:33:05 0° 162° (SSE) 2,437 10.4 -27.5°
